This is the latest recevied weather packets stored in our database for station/object JO1YDG-13. If no packets are shown the sender has not sent any weather packets the latest 10 day(s).
| Time | Temp. | Humidity | Pressure | Rain* | Wind** | Luminosity | Snow |
|---|---|---|---|---|---|---|---|
| 1777902676 | 15.56° C | 40% | 980 hPa | 0 mm | - | - | - |
| 1777902376 | 15.56° C | 40% | 979.9 hPa | 0 mm | - | - | - |
| 1777902075 | 15° C | 41% | 979.9 hPa | 0 mm | - | - | - |
| 1777901775 | 15.56° C | 41% | 979.5 hPa | 0 mm | - | - | - |
| 1777901475 | 15.56° C | 41% | 979.5 hPa | 0 mm | - | - | - |
| 1777901176 | 15.56° C | 40% | 979.2 hPa | 0 mm | - | - | - |
| 1777900876 | 15.56° C | 41% | 979.2 hPa | 0 mm | - | - | - |
| 1777900576 | 15.56° C | 41% | 979.2 hPa | 0 mm | - | - | - |
| 1777900276 | 15.56° C | 41% | 979 hPa | 0 mm | - | - | - |
| 1777899975 | 16.11° C | 40% | 979 hPa | 0 mm | - | - | - |
| 1777899677 | 16.11° C | 39% | 978.7 hPa | 0 mm | - | - | - |
| 1777899377 | 16.11° C | 39% | 978.7 hPa | 0 mm | - | - | - |
| 1777899077 | 16.11° C | 39% | 978.6 hPa | 0 mm | - | - | - |
| 1777898776 | 16.67° C | 38% | 978.5 hPa | 0 mm | - | - | - |
| 1777898476 | 16.67° C | 39% | 978.5 hPa | 0 mm | - | - | - |
| 1777898176 | 16.67° C | 39% | 978.2 hPa | 0 mm | - | - | - |
| 1777897876 | 16.11° C | 39% | 978.2 hPa | 0 mm | - | - | - |
| 1777897576 | 16.11° C | 40% | 978 hPa | 0 mm | - | - | - |
| 1777897275 | 16.67° C | 39% | 978 hPa | 0 mm | - | - | - |
| 1777896975 | 16.67° C | 39% | 978 hPa | 0 mm | - | - | - |
| 1777896676 | 16.67° C | 39% | 977.5 hPa | 0 mm | - | - | - |
| 1777896376 | 16.67° C | 39% | 977.5 hPa | 0 mm | - | - | - |
| 1777896076 | 16.67° C | 39% | 977.2 hPa | 0 mm | - | - | - |
| 1777895775 | 16.67° C | 39% | 977.2 hPa | 0 mm | - | - | - |
| 1777895475 | 16.67° C | 39% | 977.1 hPa | 0 mm | - | - | - |
* Rain latest hour (hover to see other rain measurements)
** Current wind speed in m/s (hover to see current wind gust speed)